Time,TemperatureF,DewpointF,PressureIn,WindDirection,WindDirectionDegrees,WindSpeedMPH,WindSpeedGustMPH,Humidity,HourlyPrecipIn,Conditions,Clouds,dailyrainin,SoftwareType,DateUTC
2013-02-14 00:01:00,28.0,24.0,-100.00,SW,219,0.0,0.0,85,0.00,,,0.00,,2013-02-14 08:01:00,
2013-02-14 00:52:00,27.0,24.0,-100.00,West,261,0.0,5.0,89,-99.99,,,0.00,,2013-02-14 08:52:00,
2013-02-14 01:01:00,27.0,24.0,-100.00,West,261,0.0,5.0,89,-99.99,,,0.00,,2013-02-14 09:01:00,
2013-02-14 01:52:00,27.0,24.0,-100.00,SSE,159,0.0,0.0,87,-99.99,,,0.00,,2013-02-14 09:52:00,
2013-02-14 02:02:00,27.0,24.0,-100.00,SSE,159,0.0,0.0,87,-99.99,,,0.00,,2013-02-14 10:02:00,
2013-02-14 02:52:00,27.0,25.0,-100.00,SSE,149,0.0,3.0,91,-99.99,,,0.00,,2013-02-14 10:52:00,
2013-02-14 03:01:00,27.0,25.0,-100.00,SSE,149,0.0,3.0,91,-99.99,,,0.00,,2013-02-14 11:01:00,
2013-02-14 03:52:00,34.0,26.0,-100.00,WSW,237,0.0,5.0,71,-99.99,,,0.00,,2013-02-14 11:52:00,
2013-02-14 04:01:00,34.0,26.0,-100.00,WSW,237,0.0,5.0,71,-99.99,,,0.00,,2013-02-14 12:01:00,
2013-02-14 04:11:00,34.0,26.0,-100.00,WSW,237,0.0,5.0,71,-99.99,,,0.00,,2013-02-14 12:11:00,
2013-02-14 04:22:00,34.0,26.0,-100.00,WSW,237,0.0,5.0,71,-99.99,,,0.00,,2013-02-14 12:22:00,
2013-02-14 04:53:00,38.0,22.0,-100.00,South,171,0.0,5.0,52,-99.99,,,0.00,,2013-02-14 12:53:00,
2013-02-14 05:01:00,38.0,22.0,-100.00,South,171,0.0,5.0,52,-99.99,,,0.00,,2013-02-14 13:01:00,
2013-02-14 05:11:00,38.0,22.0,-100.00,South,171,0.0,5.0,52,-99.99,,,0.00,,2013-02-14 13:11:00,
2013-02-14 05:21:00,38.0,22.0,-100.00,South,171,0.0,5.0,52,-99.99,,,0.00,,2013-02-14 13:21:00,
2013-02-14 05:51:00,38.0,22.0,-100.00,North,4,0.0,5.0,53,0.00,,,0.00,,2013-02-14 13:51:00,
2013-02-14 06:01:00,38.0,22.0,-100.00,North,4,0.0,5.0,53,0.00,,,0.00,,2013-02-14 14:01:00,
2013-02-14 06:11:00,38.0,22.0,-100.00,North,4,0.0,5.0,53,0.00,,,0.00,,2013-02-14 14:11:00,
2013-02-14 06:21:00,38.0,22.0,-100.00,North,4,0.0,5.0,53,0.00,,,0.00,,2013-02-14 14:21:00,
2013-02-14 06:52:00,38.0,23.0,-100.00,NE,56,0.0,5.0,54,0.00,,,0.00,,2013-02-14 14:52:00,
2013-02-14 07:01:00,38.0,23.0,-100.00,NE,56,0.0,5.0,54,0.00,,,0.00,,2013-02-14 15:01:00,
2013-02-14 07:11:00,38.0,23.0,-100.00,NE,56,0.0,5.0,54,0.00,,,0.00,,2013-02-14 15:11:00,
2013-02-14 07:21:00,38.0,23.0,-100.00,NE,56,0.0,5.0,54,0.00,,,0.00,,2013-02-14 15:21:00,
2013-02-14 07:52:00,47.0,25.0,-100.00,NNW,342,2.0,6.0,41,0.00,,,0.00,,2013-02-14 15:52:00,
2013-02-14 08:01:00,47.0,25.0,-100.00,NNW,342,2.0,6.0,41,0.00,,,0.00,,2013-02-14 16:01:00,
2013-02-14 08:11:00,47.0,25.0,-100.00,NNW,342,2.0,6.0,41,0.00,,,0.00,,2013-02-14 16:11:00,
2013-02-14 08:21:00,47.0,25.0,-100.00,NNW,342,2.0,6.0,41,0.00,,,0.00,,2013-02-14 16:21:00,
2013-02-14 08:52:00,53.0,22.0,-100.00,NW,307,3.0,7.0,29,0.00,,,0.00,,2013-02-14 16:52:00,
2013-02-14 09:01:00,53.0,22.0,-100.00,NW,307,3.0,7.0,29,0.00,,,0.00,,2013-02-14 17:01:00,
2013-02-14 09:11:00,53.0,22.0,-100.00,NW,307,3.0,7.0,29,0.00,,,0.00,,2013-02-14 17:11:00,
2013-02-14 09:21:00,53.0,22.0,-100.00,NW,307,3.0,7.0,29,0.00,,,0.00,,2013-02-14 17:21:00,
2013-02-14 09:52:00,56.0,23.0,-100.00,North,5,4.0,10.0,27,0.00,,,0.00,,2013-02-14 17:52:00,
2013-02-14 10:01:00,56.0,23.0,-100.00,North,5,4.0,10.0,27,0.00,,,0.00,,2013-02-14 18:01:00,
2013-02-14 10:11:00,56.0,23.0,-100.00,North,5,4.0,10.0,27,0.00,,,0.00,,2013-02-14 18:11:00,
2013-02-14 10:22:00,56.0,23.0,-100.00,North,5,4.0,10.0,27,0.00,,,0.00,,2013-02-14 18:22:00,
2013-02-14 10:52:00,60.0,24.0,-100.00,SSW,193,3.0,11.0,25,0.00,,,0.00,,2013-02-14 18:52:00,
2013-02-14 11:01:00,60.0,24.0,-100.00,SSW,193,3.0,11.0,25,0.00,,,0.00,,2013-02-14 19:01:00,
2013-02-14 11:11:00,60.0,24.0,-100.00,SSW,193,3.0,11.0,25,0.00,,,0.00,,2013-02-14 19:11:00,
2013-02-14 11:21:00,60.0,24.0,-100.00,SSW,193,3.0,11.0,25,0.00,,,0.00,,2013-02-14 19:21:00,
2013-02-14 11:52:00,59.0,22.0,-100.00,NE,41,6.0,17.0,24,0.00,,,0.00,,2013-02-14 19:52:00,
2013-02-14 12:01:00,59.0,22.0,-100.00,NE,41,6.0,17.0,24,0.00,,,0.00,,2013-02-14 20:01:00,
2013-02-14 12:11:00,59.0,22.0,-100.00,NE,41,6.0,17.0,24,0.00,,,0.00,,2013-02-14 20:11:00,
2013-02-14 12:21:00,59.0,22.0,-100.00,NE,41,6.0,17.0,24,0.00,,,0.00,,2013-02-14 20:21:00,
2013-02-14 12:52:00,59.0,19.0,-100.00,NNE,15,5.0,19.0,21,0.00,,,0.00,,2013-02-14 20:52:00,
2013-02-14 13:02:00,59.0,19.0,-100.00,NNE,15,5.0,19.0,21,0.00,,,0.00,,2013-02-14 21:02:00,
2013-02-14 13:11:00,59.0,19.0,-100.00,NNE,15,5.0,19.0,21,0.00,,,0.00,,2013-02-14 21:11:00,
2013-02-14 13:21:00,59.0,19.0,-100.00,NNE,15,5.0,19.0,21,0.00,,,0.00,,2013-02-14 21:21:00,
2013-02-14 13:52:00,60.0,22.0,-100.00,WNW,287,6.0,16.0,23,0.00,,,0.00,,2013-02-14 21:52:00,
2013-02-14 14:02:00,60.0,22.0,-100.00,WNW,287,6.0,16.0,23,0.00,,,0.00,,2013-02-14 22:02:00,
2013-02-14 14:11:00,60.0,22.0,-100.00,WNW,287,6.0,16.0,23,0.00,,,0.00,,2013-02-14 22:11:00,
2013-02-14 14:21:00,60.0,22.0,-100.00,WNW,287,6.0,16.0,23,0.00,,,0.00,,2013-02-14 22:21:00,
2013-02-14 14:52:00,58.0,18.0,-100.00,NE,42,7.0,18.0,21,0.00,,,0.00,,2013-02-14 22:52:00,
2013-02-14 15:01:00,58.0,18.0,-100.00,NE,42,7.0,18.0,21,0.00,,,0.00,,2013-02-14 23:01:00,
2013-02-14 15:11:00,58.0,18.0,-100.00,NE,42,7.0,18.0,21,0.00,,,0.00,,2013-02-14 23:11:00,
2013-02-14 15:21:00,58.0,18.0,-100.00,NE,42,7.0,18.0,21,0.00,,,0.00,,2013-02-14 23:21:00,
2013-02-14 15:52:00,56.0,17.0,-100.00,ENE,70,9.0,18.0,21,0.00,,,0.00,,2013-02-14 23:52:00,
2013-02-14 16:01:00,56.0,17.0,-100.00,ENE,70,9.0,18.0,21,0.00,,,0.00,,2013-02-15 00:01:00,
2013-02-14 16:11:00,56.0,17.0,-100.00,ENE,70,9.0,18.0,21,0.00,,,0.00,,2013-02-15 00:11:00,
2013-02-14 16:21:00,56.0,17.0,-100.00,ENE,70,9.0,18.0,21,0.00,,,0.00,,2013-02-15 00:21:00,
2013-02-14 16:52:00,56.0,18.0,-100.00,NNE,13,1.0,17.0,22,0.00,,,0.00,,2013-02-15 00:52:00,
2013-02-14 17:01:00,56.0,18.0,-100.00,NNE,13,1.0,17.0,22,0.00,,,0.00,,2013-02-15 01:01:00,
2013-02-14 17:11:00,56.0,18.0,-100.00,NNE,13,1.0,17.0,22,0.00,,,0.00,,2013-02-15 01:11:00,
2013-02-14 17:21:00,56.0,18.0,-100.00,NNE,13,1.0,17.0,22,0.00,,,0.00,,2013-02-15 01:21:00,
2013-02-14 17:52:00,50.0,16.0,-100.00,NE,38,4.0,16.0,25,0.00,,,0.00,,2013-02-15 01:52:00,
2013-02-14 18:01:00,50.0,16.0,-100.00,NE,38,4.0,16.0,25,0.00,,,0.00,,2013-02-15 02:01:00,
2013-02-14 18:11:00,50.0,16.0,-100.00,NE,38,4.0,16.0,25,0.00,,,0.00,,2013-02-15 02:11:00,
2013-02-14 18:21:00,50.0,16.0,-100.00,NE,38,4.0,16.0,25,0.00,,,0.00,,2013-02-15 02:21:00,
2013-02-14 18:52:00,49.0,17.0,-100.00,NNE,16,2.0,13.0,28,0.00,,,0.00,,2013-02-15 02:52:00,
2013-02-14 19:02:00,49.0,17.0,-100.00,NNE,16,2.0,13.0,28,0.00,,,0.00,,2013-02-15 03:02:00,
2013-02-14 19:11:00,49.0,17.0,-100.00,NNE,16,2.0,13.0,28,0.00,,,0.00,,2013-02-15 03:11:00,
2013-02-14 19:21:00,49.0,17.0,-100.00,NNE,16,2.0,13.0,28,0.00,,,0.00,,2013-02-15 03:21:00,
2013-02-14 19:52:00,42.0,18.0,-100.00,NNW,342,0.0,13.0,38,0.00,,,0.00,,2013-02-15 03:52:00,
2013-02-14 20:01:00,42.0,18.0,-100.00,NNW,342,0.0,13.0,38,0.00,,,0.00,,2013-02-15 04:01:00,
2013-02-14 20:11:00,42.0,18.0,-100.00,NNW,342,0.0,13.0,38,0.00,,,0.00,,2013-02-15 04:11:00,
2013-02-14 20:21:00,42.0,18.0,-100.00,NNW,342,0.0,13.0,38,0.00,,,0.00,,2013-02-15 04:21:00,
2013-02-14 20:52:00,46.0,18.0,-100.00,NNE,24,1.0,6.0,32,0.00,,,0.00,,2013-02-15 04:52:00,
2013-02-14 21:01:00,46.0,18.0,-100.00,NNE,24,1.0,6.0,32,0.00,,,0.00,,2013-02-15 05:01:00,
2013-02-14 21:11:00,46.0,18.0,-100.00,NNE,24,1.0,6.0,32,0.00,,,0.00,,2013-02-15 05:11:00,
2013-02-14 21:22:00,46.0,18.0,-100.00,NNE,24,1.0,6.0,32,0.00,,,0.00,,2013-02-15 05:22:00,
2013-02-14 21:52:00,48.0,19.0,-100.00,NNE,19,2.0,15.0,31,0.00,,,0.00,,2013-02-15 05:52:00,
2013-02-14 22:02:00,48.0,19.0,-100.00,NNE,19,2.0,15.0,31,0.00,,,0.00,,2013-02-15 06:02:00,
2013-02-14 22:11:00,48.0,19.0,-100.00,NNE,19,2.0,15.0,31,0.00,,,0.00,,2013-02-15 06:11:00,
2013-02-14 22:21:00,48.0,19.0,-100.00,NNE,19,2.0,15.0,31,0.00,,,0.00,,2013-02-15 06:21:00,
2013-02-14 22:52:00,45.0,21.0,-100.00,NNE,26,3.0,11.0,38,0.00,,,0.00,,2013-02-15 06:52:00,
2013-02-14 23:01:00,45.0,21.0,-100.00,NNE,26,3.0,11.0,38,0.00,,,0.00,,2013-02-15 07:01:00,
2013-02-14 23:11:00,45.0,21.0,-100.00,NNE,26,3.0,11.0,38,0.00,,,0.00,,2013-02-15 07:11:00,
2013-02-14 23:21:00,45.0,21.0,-100.00,NNE,26,3.0,11.0,38,0.00,,,0.00,,2013-02-15 07:21:00,
2013-02-14 23:52:00,47.0,19.0,-100.00,North,5,6.0,12.0,33,0.00,,,0.00,,2013-02-15 07:52:00,